Location: Gaast
(52.9002°N, 5.8891°E)
Time: 07:22:33
(UTC+00:00)

SKYMED 2 - Pass Details

Date: 18 November 2025
Orbit: 621 x 623 km, 97.9° (Epoch: 12 December)

Event Time Altitude Azimuth Distance (km) Brightness Sun altitude
Exits shadow 18:03:31 24° 13° (NNE) 1,308 5.0 -21.6°
Maximum altitude 18:06:08 87° 288° (WNW) 631 3.5 -22.0°
Drops below altitude 10° 18:10:28 10° 198° (SSW) 1,989 6.4 -22.7°
Sets 18:12:39 0° 198° (SSW) 2,890 7.2 -23.0°
